Location: Newark
(48.1500°N, 2.9667°W)
Time: 01:09:31
(UTC+00:00)

Transit 2A - Pass Details

Date: 28 January 2020
Orbit: 600 x 959 km, 66.7° (Epoch: 19 February)

Event Time Altitude Azimuth Distance (km) Brightness Sun altitude
Rises 21:16:49 0° 261° (W) 2,855 9.6 -41.6°
Enters shadow 21:18:30 - 271° (W) 2,292 9.1 -41.9°
Reaches altitude 10° 21:19:41 10° 281° (W) 1,945 - -42.1°
Maximum altitude 21:22:42 18° 326° (NW) 1,493 - -42.6°
Drops below altitude 10° 21:25:46 10° 10° (N) 1,978 - -43.0°
Sets 21:28:43 0° 30° (NNE) 2,921 - -43.5°
